• en France
  • Liste des pays
  • À 7 jours
  • Température de l'eau
  • Carte satellitaire
  • Carte météo
  • Widgets météo
  • user-avatar
    Se connecter

    Météo par heure à Rangpur

    Ce jour, 20 Novembre, Lundi

    Heure Température Précipitation Vent Pression Humidité
    00:00 +25°C° 0 mm 1 m/s 756 mmHg 71%
    01:00 +24°C° 0 mm 1 m/s 756 mmHg 72%
    02:00 +24°C° 0 mm 1 m/s 755 mmHg 74%
    03:00 +22°C° 0 mm 0 m/s 755 mmHg 75%
    04:00 +23°C° 0 mm 1 m/s 755 mmHg 77%
    05:00 +23°C° 0 mm 1 m/s 755 mmHg 78%
    06:00 +23°C° 0 mm 1 m/s 756 mmHg 78%
    07:00 +24°C° 0 mm 1 m/s 756 mmHg 74%
    08:00 +25°C° 0 mm 1 m/s 757 mmHg 70%
    09:00 +26°C° 0 mm 1 m/s 757 mmHg 66%
    10:00 +28°C° 0 mm 1 m/s 757 mmHg 60%
    11:00 +29°C° 0 mm 1 m/s 757 mmHg 54%
    12:00 +31°C° 0 mm 1 m/s 757 mmHg 51%
    13:00 +31°C° 0 mm 2 m/s 756 mmHg 49%
    14:00 +31°C° 0 mm 2 m/s 756 mmHg 46%
    15:00 +31°C° 0 mm 3 m/s 755 mmHg 43%
    16:00 +30°C° 0 mm 2 m/s 755 mmHg 47%
    17:00 +28°C° 0 mm 2 m/s 755 mmHg 51%
    18:00 +27°C° 0 mm 2 m/s 754 mmHg 55%
    19:00 +26°C° 0 mm 1 m/s 755 mmHg 56%
    20:00 +26°C° 0 mm 1 m/s 755 mmHg 58%
    21:00 +25°C° 0 mm 1 m/s 755 mmHg 59%
    22:00 +24°C° 0 mm 1 m/s 755 mmHg 61%
    23:00 +24°C° 0 mm 1 m/s 755 mmHg 63%

    Demain, 21 Novembre, Mardi

    Heure Température Précipitation Vent Pression Humidité
    00:00 +23°C° 0 mm 1 m/s 755 mmHg 65%
    01:00 +23°C° 0 mm 1 m/s 755 mmHg 67%
    02:00 +23°C° 0 mm 1 m/s 755 mmHg 69%
    03:00 +22°C° 0 mm 1 m/s 755 mmHg 72%
    04:00 +22°C° 0 mm 1 m/s 755 mmHg 73%
    05:00 +21°C° 0 mm 1 m/s 755 mmHg 75%
    06:00 +21°C° 0 mm 1 m/s 756 mmHg 77%
    07:00 +21°C° 0 mm 2 m/s 756 mmHg 73%
    08:00 +24°C° 0 mm 2 m/s 757 mmHg 70%
    09:00 +25°C° 0 mm 2 m/s 758 mmHg 67%
    10:00 +26°C° 0 mm 2 m/s 757 mmHg 61%
    11:00 +28°C° 0 mm 2 m/s 757 mmHg 56%
    12:00 +29°C° 0 mm 1 m/s 757 mmHg 51%
    13:00 +29°C° 0 mm 1 m/s 756 mmHg 48%
    14:00 +30°C° 0 mm 1 m/s 755 mmHg 46%
    15:00 +30°C° 0 mm 1 m/s 754 mmHg 43%
    16:00 +28°C° 0 mm 1 m/s 755 mmHg 47%
    17:00 +27°C° 0 mm 2 m/s 755 mmHg 51%
    18:00 +25°C° 0 mm 2 m/s 755 mmHg 55%
    19:00 +25°C° 0 mm 2 m/s 755 mmHg 56%
    20:00 +24°C° 0 mm 2 m/s 756 mmHg 57%
    21:00 +23°C° 0 mm 2 m/s 756 mmHg 58%
    22:00 +23°C° 0 mm 2 m/s 756 mmHg 58%
    23:00 +21°C° 0 mm 2 m/s 756 mmHg 59%

    Après-demain, 22 Novembre, Mercredi

    Heure Température Précipitation Vent Pression Humidité
    00:00 +21°C° 0 mm 2 m/s 756 mmHg 60%
    01:00 +20°C° 0 mm 2 m/s 755 mmHg 63%
    02:00 +20°C° 0 mm 2 m/s 755 mmHg 66%
    03:00 +20°C° 0 mm 2 m/s 755 mmHg 69%
    04:00 +19°C° 0 mm 2 m/s 755 mmHg 73%
    05:00 +19°C° 0 mm 2 m/s 755 mmHg 76%
    06:00 +19°C° 0 mm 2 m/s 755 mmHg 80%
    07:00 +20°C° 0 mm 2 m/s 756 mmHg 77%
    08:00 +23°C° 0 mm 2 m/s 756 mmHg 73%
    09:00 +24°C° 0 mm 2 m/s 757 mmHg 70%
    10:00 +25°C° 0 mm 3 m/s 756 mmHg 66%
    11:00 +27°C° 0 mm 3 m/s 756 mmHg 61%
    12:00 +28°C° 0 mm 3 m/s 755 mmHg 56%
    13:00 +28°C° 0 mm 2 m/s 755 mmHg 54%
    14:00 +28°C° 0 mm 2 m/s 754 mmHg 51%
    15:00 +29°C° 0 mm 2 m/s 753 mmHg 49%
    16:00 +27°C° 0 mm 1 m/s 753 mmHg 53%
    17:00 +26°C° 0 mm 1 m/s 753 mmHg 57%
    18:00 +25°C° 0 mm 1 m/s 754 mmHg 61%
    19:00 +24°C° 0 mm 1 m/s 754 mmHg 63%
    20:00 +24°C° 0 mm 1 m/s 755 mmHg 64%
    21:00 +23°C° 0 mm 1 m/s 755 mmHg 65%
    22:00 +23°C° 0 mm 1 m/s 755 mmHg 66%
    23:00 +21°C° 0 mm 2 m/s 755 mmHg 66%

    23 Novembre, Jeudi

    Heure Température Précipitation Vent Pression Humidité
    00:00 +21°C° 0 mm 2 m/s 755 mmHg 66%
    01:00 +20°C° 0 mm 2 m/s 755 mmHg 68%
    02:00 +20°C° 0 mm 2 m/s 755 mmHg 69%
    03:00 +20°C° 0 mm 2 m/s 755 mmHg 71%
    04:00 +19°C° 0 mm 2 m/s 755 mmHg 72%
    05:00 +19°C° 0 mm 2 m/s 755 mmHg 74%
    06:00 +19°C° 0 mm 2 m/s 755 mmHg 75%
    07:00 +20°C° 0 mm 2 m/s 756 mmHg 70%
    08:00 +21°C° 0 mm 2 m/s 756 mmHg 65%
    09:00 +24°C° 0 mm 3 m/s 757 mmHg 60%
    10:00 +25°C° 0 mm 3 m/s 757 mmHg 56%
    11:00 +26°C° 0 mm 3 m/s 756 mmHg 51%
    12:00 +28°C° 0 mm 3 m/s 756 mmHg 47%
    13:00 +28°C° 0 mm 3 m/s 755 mmHg 46%
    14:00 +28°C° 0 mm 2 m/s 754 mmHg 46%
    15:00 +29°C° 0 mm 2 m/s 754 mmHg 45%
    16:00 +27°C° 0 mm 2 m/s 754 mmHg 49%
    17:00 +26°C° 0 mm 2 m/s 754 mmHg 54%
    18:00 +24°C° 0 mm 1 m/s 754 mmHg 58%
    19:00 +24°C° 0 mm 1 m/s 755 mmHg 60%
    20:00 +23°C° 0 mm 1 m/s 756 mmHg 62%
    21:00 +23°C° 0 mm 1 m/s 756 mmHg 64%
    22:00 +22°C° 0 mm 1 m/s 756 mmHg 64%
    23:00 +22°C° 0 mm 1 m/s 756 mmHg 65%

    24 Novembre, Vendredi

    Heure Température Précipitation Vent Pression Humidité
    00:00 +20°C° 0 mm 2 m/s 756 mmHg 66%
    01:00 +20°C° 0 mm 2 m/s 756 mmHg 67%
    02:00 +20°C° 0 mm 2 m/s 756 mmHg 67%
    03:00 +19°C° 0 mm 2 m/s 755 mmHg 67%
    04:00 +19°C° 0 mm 2 m/s 756 mmHg 67%
    05:00 +19°C° 0 mm 2 m/s 756 mmHg 67%
    06:00 +18°C° 0 mm 2 m/s 756 mmHg 67%
    07:00 +20°C° 0 mm 2 m/s 757 mmHg 64%
    08:00 +21°C° 0 mm 2 m/s 757 mmHg 60%
    09:00 +23°C° 0 mm 2 m/s 758 mmHg 56%
    10:00 +25°C° 0 mm 2 m/s 757 mmHg 52%
    11:00 +26°C° 0 mm 2 m/s 757 mmHg 48%
    12:00 +28°C° 0 mm 2 m/s 757 mmHg 44%
    13:00 +28°C° 0 mm 2 m/s 756 mmHg 44%
    14:00 +28°C° 0 mm 2 m/s 755 mmHg 43%
    15:00 +28°C° 0 mm 2 m/s 755 mmHg 42%
    16:00 +27°C° 0 mm 1 m/s 755 mmHg 46%
    17:00 +26°C° 0 mm 1 m/s 755 mmHg 50%
    18:00 +24°C° 0 mm 1 m/s 755 mmHg 54%
    19:00 +24°C° 0 mm 1 m/s 756 mmHg 56%
    20:00 +23°C° 0 mm 1 m/s 756 mmHg 57%
    21:00 +23°C° 0 mm 1 m/s 757 mmHg 59%
    22:00 +22°C° 0 mm 1 m/s 757 mmHg 60%
    23:00 +22°C° 0 mm 1 m/s 757 mmHg 62%

    25 Novembre, Samedi

    Heure Température Précipitation Vent Pression Humidité
    00:00 +21°C° 0 mm 1 m/s 756 mmHg 63%
    01:00 +21°C° 0 mm 1 m/s 756 mmHg 64%
    02:00 +20°C° 0 mm 1 m/s 756 mmHg 65%
    03:00 +20°C° 0 mm 1 m/s 756 mmHg 66%
    04:00 +19°C° 0 mm 2 m/s 757 mmHg 66%
    05:00 +18°C° 0 mm 2 m/s 757 mmHg 67%
    06:00 +18°C° 0 mm 2 m/s 757 mmHg 67%
    07:00 +20°C° 0 mm 2 m/s 758 mmHg 64%
    08:00 +21°C° 0 mm 2 m/s 758 mmHg 60%
    09:00 +22°C° 0 mm 3 m/s 759 mmHg 56%
    10:00 +25°C° 0 mm 3 m/s 758 mmHg 52%
    11:00 +26°C° 0 mm 3 m/s 758 mmHg 47%
    12:00 +28°C° 0 mm 3 m/s 758 mmHg 43%
    13:00 +28°C° 0 mm 3 m/s 757 mmHg 42%
    14:00 +28°C° 0 mm 2 m/s 756 mmHg 42%
    15:00 +28°C° 0 mm 2 m/s 756 mmHg 41%
    16:00 +27°C° 0 mm 2 m/s 756 mmHg 46%
    17:00 +26°C° 0 mm 2 m/s 756 mmHg 50%
    18:00 +24°C° 0 mm 2 m/s 757 mmHg 55%
    19:00 +24°C° 0 mm 2 m/s 757 mmHg 57%
    20:00 +23°C° 0 mm 1 m/s 758 mmHg 59%
    21:00 +22°C° 0 mm 1 m/s 758 mmHg 61%
    22:00 +22°C° 0 mm 1 m/s 758 mmHg 62%
    23:00 +21°C° 0 mm 2 m/s 758 mmHg 63%
    Voir plus